DW2147 Weather Reports


Display with metric or nautical units.
time (UTC)temp
F
wind
direction
speed
MPH
gust
MPH
rain 1hr
in
rain 24hr
in
rain mn
in
humidity
%
barometer
mb
20260509152412 54 0 4.0 10.0 0.01 0.26 0.26 71 1009.9
20260509151913 54 0 5.0 9.0 0.01 0.26 0.26 71 1010.0
20260509151410 54 0 5.0 10.0 0.01 0.26 0.26 71 1010.0
20260509150910 54 0 5.0 10.0 0.01 0.26 0.26 71 1010.0
20260509150409 54 0 6.0 12.0 0.01 0.26 0.26 71 1009.9
20260509145911 54 0 6.0 11.0 0.01 0.26 0.26 71 1010.0
20260509145907 54 0 7.0 12.0 0.01 0.26 0.26 71 1010.1
20260509144907 54 0 5.0 9.0 0.01 0.26 0.26 71 1010.1
20260509144406 54 0 4.0 9.0 0.01 0.26 0.26 71 1010.0
20260509143907 54 0 5.0 8.0 0.01 0.26 0.26 71 1010.2
20260509143637 53 0 6.0 11.0 0.02 0.26 0.26 71 1010.1
20260509143533 53 0 5.0 11.0 0.02 0.26 0.26 71 1010.1
20260509142637 53 0 3.0 10.0 0.01 0.25 0.25 71 1010.0
20260509141906 54 0 4.0 8.0 0.01 0.25 0.25 72 1010.2
20260509141405 53 0 4.0 8.0 0.01 0.25 0.25 72 1010.3
20260509140904 53 0 3.0 6.0 0.02 0.25 0.25 72 1010.2
20260509140403 53 0 4.0 6.0 0.02 0.25 0.25 72 1010.1
20260509135904 53 0 3.0 6.0 0.03 0.25 0.25 72 1010.2
20260509135402 53 0 2.0 5.0 0.03 0.25 0.25 72 1010.2
20260509134904 53 0 3.0 4.0 0.04 0.25 0.25 72 1010.1
20260509134403 53 0 3.0 4.0 0.05 0.25 0.25 72 1010.2
20260509133902 53 0 2.0 4.0 0.05 0.25 0.25 72 1010.2
20260509133636 53 0 3.0 9.0 0.05 0.24 0.24 72 1010.4
20260509133401 53 0 2.0 4.0 0.05 0.24 0.24 72 1010.1
20260509132359 53 0 3.0 9.0 0.05 0.24 0.24 72 1010.2
20260509131858 53 0 3.0 5.0 0.06 0.24 0.24 72 1010.1
20260509131356 52 0 3.0 6.0 0.06 0.24 0.24 72 1010.3
20260509130856 52 0 3.0 8.0 0.05 0.23 0.23 72 1010.3
20260509130356 52 0 4.0 8.0 0.05 0.23 0.23 72 1010.3
20260509125854 52 0 3.0 8.0 0.04 0.22 0.22 72 1010.4
20260509125353 52 0 3.0 6.0 0.04 0.22 0.22 72 1010.4
20260509124858 52 0 3.0 6.0 0.03 0.20 0.20 72 1010.5
20260509124854 52 0 3.0 6.0 0.03 0.21 0.21 72 1010.5
20260509123852 52 0 3.0 6.0 0.04 0.20 0.20 72 1010.4
20260509123351 52 0 3.0 6.0 0.03 0.19 0.20 72 1010.5
20260509123122 52 0 4.0 6.0 0.04 0.19 0.19 72 1010.5
20260509122352 52 0 3.0 6.0 0.04 0.19 0.19 72 1010.5
20260509121850 52 0 4.0 6.0 0.03 0.18 0.18 72 1010.4
20260509121351 52 0 3.0 6.0 0.04 0.18 0.18 72 1010.8
20260509120849 52 0 3.0 6.0 0.04 0.18 0.18 72 1010.8
20260509120349 52 0 4.0 6.0 0.04 0.18 0.18 72 1010.8
20260509115846 51 0 4.0 6.0 0.04 0.18 0.18 72 1010.8
20260509115346 51 0 4.0 6.0 0.04 0.18 0.18 72 1010.8
20260509114849 51 0 3.0 6.0 0.03 0.17 0.17 72 1010.8
20260509114347 51 0 4.0 6.0 0.04 0.17 0.17 71 1010.7
20260509113847 51 0 4.0 6.0 0.03 0.16 0.16 71 1010.8
20260509113345 51 0 4.0 6.0 0.03 0.16 0.16 71 1010.8
20260509112847 51 0 4.0 6.0 0.02 0.15 0.15 71 1010.8
20260509112340 51 0 3.0 6.0 0.02 0.15 0.15 71 1010.7
20260509111841 51 0 3.0 5.0 0.03 0.15 0.15 71 1010.7
20260509111341 51 0 3.0 6.0 0.02 0.14 0.14 71 1010.7
20260509111113 51 0 3.0 8.0 0.02 0.14 0.14 71 1010.8
20260509110339 51 0 3.0 8.0 0.02 0.14 0.14 71 1010.6
20260509105838 51 197 3.0 8.0 0.02 0.14 0.14 71 1010.7
20260509105337 51 0 2.0 5.0 0.03 0.14 0.14 71 1010.6
20260509104835 51 0 2.0 5.0 0.03 0.14 0.14 71 1010.6
20260509104335 51 0 2.0 4.0 0.02 0.13 0.14 71 1010.7
20260509103835 51 0 2.0 4.0 0.03 0.13 0.13 71 1010.6
20260509103333 51 0 2.0 4.0 0.03 0.13 0.13 71 1010.6
20260509103105 51 0 2.0 4.0 0.04 0.13 0.13 70 1010.7
20260509102326 51 0 2.0 5.0 0.05 0.13 0.13 70 1010.6
20260509101827 51 0 2.0 5.0 0.05 0.12 0.12 70 1010.7
20260509101327 51 0 1.0 5.0 0.06 0.12 0.12 70 1010.7
20260509100827 51 163 2.0 4.0 0.06 0.12 0.12 70 1010.7
20260509100326 51 162 3.0 6.0 0.07 0.12 0.12 70 1010.7
20260509095829 51 0 3.0 6.0 0.07 0.12 0.12 70 1010.7
20260509095321 51 182 3.0 5.0 0.07 0.11 0.11 70 1010.9
20260509095051 51 184 2.0 5.0 0.08 0.11 0.11 70 1010.9
20260509094319 52 0 2.0 4.0 0.09 0.11 0.11 70 1011.1
20260509093820 52 178 2.0 4.0 0.08 0.10 0.10 71 1011.2
20260509093321 52 178 2.0 4.0 0.09 0.10 0.10 71 1011.2
20260509092821 52 178 2.0 4.0 0.09 0.09 0.09 71 1011.2
20260509092314 52 0 2.0 4.0 0.08 0.08 0.08 71 1011.2
20260509091812 52 178 2.0 4.0 0.07 0.07 0.07 71 1011.4
20260509091312 53 0 2.0 3.0 0.06 0.06 0.06 71 1011.4
20260509090812 53 0 2.0 3.0 0.06 0.06 0.06 71 1011.3
20260509090312 53 0 2.0 5.0 0.05 0.05 0.05 71 1011.3
20260509085813 53 0 2.0 5.0 0.04 0.04 0.04 70 1011.2
20260509085310 53 0 2.0 6.0 0.04 0.04 0.04 70 1011.4
20260509084810 54 0 3.0 6.0 0.03 0.03 0.03 69 1011.4
20260509084309 54 0 3.0 6.0 0.02 0.02 0.02 68 1011.6
20260509083810 55 0 3.0 9.0 0.02 0.02 0.02 66 1011.4
20260509083311 55 0 2.0 9.0 0.01 0.01 0.01 65 1011.2
20260509083039 55 0 3.0 12.0 0.00 0.00 0.00 64 1011.1
20260509082308 55 240 5.0 12.0 0.00 0.00 0.00 63 1010.8
20260509081801 55 0 4.0 9.0 0.00 0.00 0.00 62 1010.5
20260509081303 55 0 3.0 10.0 0.00 0.00 0.00 63 1010.2
20260509080802 54 221 3.0 10.0 0.00 0.00 0.00 63 1010.2
20260509080533 53 0 3.0 9.0 0.00 0.00 0.00 64 1009.9
20260509075803 52 189 3.0 9.0 0.00 0.00 0.00 66 1010.0
20260509075305 52 0 2.0 9.0 0.00 0.00 0.00 68 1009.9
20260509075033 52 0 1.0 4.0 0.00 0.00 0.00 70 1009.8
20260509074301 52 0 0.0 3.0 0.00 0.00 0.00 71 1009.6
20260509073800 52 0 0.0 2.0 0.00 0.00 0.00 71 1009.6
20260509073301 52 0 0.0 2.0 0.00 0.00 0.00 71 1009.3
20260509072800 52 0 0.0 2.0 0.00 0.00 0.00 71 1009.3
20260509072300 52 0 0.0 2.0 0.00 0.00 0.00 71 1009.2
20260509071801 52 0 0.0 2.0 0.00 0.00 0.00 71 1009.2
20260509071255 52 0 0.0 2.0 0.00 0.00 0.00 71 1009.2
20260509071027 52 0 0.0 2.0 0.00 0.00 0.00 71 1009.1
20260509070916 52 0 0.0 3.0 0.00 0.00 0.00 70 1009.1
20260509065756 52 0 0.0 3.0 0.00 0.00 0.00 70 1009.1
20260509065528 52 0 0.0 0.0 0.00 0.00 0.00 70 1009.0
20260509064757 52 0 0.0 0.0 0.00 0.00 0.00 70 1009.1
20260509064251 53 0 0.0 0.0 0.00 0.00 0.00 70 1009.1
20260509064023 53 0 0.0 1.0 0.00 0.00 0.00 70 1009.1
20260509063256 53 182 0.0 1.0 0.00 0.00 0.00 70 1009.2
20260509062752 53 0 0.0 1.0 0.00 0.00 0.00 70 1009.2
20260509062253 53 182 0.0 0.0 0.00 0.00 0.00 70 1009.2
20260509061752 53 182 0.0 1.0 0.00 0.00 0.00 70 1009.3
20260509061251 53 0 1.0 2.0 0.00 0.00 0.00 70 1009.4
20260509060751 53 182 1.0 2.0 0.00 0.00 0.00 70 1009.5
20260509060251 53 0 0.0 2.0 0.00 0.00 0.00 70 1009.6
20260509055752 54 182 0.0 2.0 0.00 0.00 0.00 70 1009.6
20260509055250 54 182 0.0 2.0 0.00 0.00 0.00 70 1009.7
20260509054748 54 182 0.0 2.0 0.00 0.00 0.00 69 1009.8
20260509054251 54 0 0.0 2.0 0.00 0.00 0.00 69 1010.1
20260509053745 54 182 0.0 3.0 0.00 0.00 0.00 69 1010.1
20260509053245 54 182 0.0 3.0 0.00 0.00 0.00 68 1010.2
20260509052747 54 0 0.0 0.0 0.00 0.00 0.00 68 1010.2
20260509052244 54 180 0.0 0.0 0.00 0.00 0.00 68 1010.4
20260509051742 54 180 0.0 0.0 0.00 0.00 0.00 68 1010.5
20260509051242 54 180 0.0 0.0 0.00 0.00 0.00 68 1010.6
20260509050735 54 180 0.0 0.0 0.00 0.00 0.00 68 1010.7
20260509050234 54 180 0.0 0.0 0.00 0.00 0.00 68 1010.7
20260509045732 54 180 0.0 0.0 0.00 0.00 0.00 68 1010.7
20260509045230 54 180 0.0 0.0 0.00 0.00 0.00 68 1010.7
20260509044729 54 180 0.0 3.0 0.00 0.00 0.00 68 1010.7
20260509044226 54 180 1.0 4.0 0.00 0.00 0.00 68 1010.7
20260509043725 55 0 0.0 4.0 0.00 0.00 0.00 68 1010.8
20260509043457 55 180 0.0 0.0 0.00 0.00 0.00 68 1010.9
20260509042725 55 180 0.0 0.0 0.00 0.00 0.00 67 1010.9
20260509042226 55 180 0.0 0.0 0.00 0.00 0.00 66 1010.8
20260509041726 55 179 0.0 0.0 0.00 0.00 0.00 66 1010.9
20260509041225 55 180 0.0 0.0 0.00 0.00 0.00 66 1011.1
20260509040721 55 0 0.0 0.0 0.00 0.00 0.00 66 1011.1
20260509040219 55 179 0.0 0.0 0.00 0.00 0.00 66 1011.2
20260509035719 55 179 0.0 2.0 0.00 0.00 0.00 66 1011.3
20260509035221 55 180 1.0 2.0 0.00 0.00 0.00 66 1011.3
20260509034716 55 180 1.0 3.0 0.00 0.00 0.00 66 1011.4
20260509034215 55 0 1.0 3.0 0.00 0.00 0.00 66 1011.3
20260509033715 56 172 0.0 2.0 0.00 0.00 0.00 66 1011.4
20260509033213 56 0 0.0 2.0 0.00 0.00 0.00 65 1011.4
20260509032712 56 0 0.0 2.0 0.00 0.00 0.00 65 1011.4
20260509032211 56 172 0.0 1.0 0.00 0.00 0.00 65 1011.4
20260509031707 56 172 0.0 1.0 0.00 0.00 0.00 65 1011.6
20260509031205 56 172 0.0 2.0 0.00 0.00 0.00 65 1011.7
20260509030705 56 172 0.0 3.0 0.00 0.00 0.00 65 1011.6
20260509030206 56 172 1.0 3.0 0.00 0.00 0.00 65 1011.7
20260509025658 56 0 1.0 2.0 0.00 0.00 0.00 65 1012.1
20260509025158 56 0 0.0 2.0 0.00 0.00 0.00 64 1012.2
20260509024656 56 0 1.0 3.0 0.00 0.00 0.00 63 1012.2
20260509024157 56 244 1.0 3.0 0.00 0.00 0.00 64 1012.1
20260509023700 57 0 0.0 3.0 0.00 0.00 0.00 65 1012.2
20260509023157 57 243 0.0 0.0 0.00 0.00 0.00 65 1012.2
20260509022656 57 243 0.0 0.0 0.00 0.00 0.00 65 1012.3
20260509022154 57 0 0.0 0.0 0.00 0.00 0.00 64 1012.2
20260509021652 57 242 0.0 0.0 0.00 0.00 0.00 64 1012.1
20260509021149 57 242 0.0 0.0 0.00 0.00 0.00 62 1012.0
20260509021042 57 242 0.0 0.0 0.00 0.00 0.00 62 1011.9
20260509020934 57 242 0.0 0.0 0.00 0.00 0.00 62 1012.0
20260509015647 58 242 0.0 0.0 0.00 0.00 0.00 61 1011.8
20260509015144 58 242 0.0 0.0 0.00 0.00 0.00 61 1011.7
20260509014914 58 242 0.0 0.0 0.00 0.00 0.00 61 1011.8
20260509014144 58 242 0.0 0.0 0.00 0.00 0.00 60 1011.8
20260509013915 58 242 0.0 0.0 0.00 0.00 0.00 60 1011.7
20260509013142 58 242 0.0 0.0 0.00 0.00 0.00 60 1011.6
20260509012640 58 242 0.0 1.0 0.00 0.00 0.00 59 1011.6
20260509012409 59 243 0.0 1.0 0.00 0.00 0.00 59 1011.6
20260509011636 59 243 0.0 1.0 0.00 0.00 0.00 58 1011.3
20260509011133 59 243 0.0 0.0 0.00 0.00 0.00 58 1011.3
20260509010632 59 243 0.0 1.0 0.00 0.00 0.00 57 1011.4
20260509010133 59 242 0.0 2.0 0.00 0.00 0.00 57 1011.6
20260509005630 60 242 0.0 2.0 0.00 0.00 0.00 57 1011.6
20260509005131 60 0 0.0 0.0 0.00 0.00 0.00 55 1011.6
20260509004630 60 242 0.0 1.0 0.00 0.00 0.00 55 1011.7
20260509004129 61 242 1.0 3.0 0.00 0.00 0.00 55 1011.7
20260509003626 61 242 1.0 3.0 0.00 0.00 0.00 54 1011.7
20260509003126 61 0 1.0 3.0 0.00 0.00 0.00 54 1011.7
20260509002901 61 0 0.0 2.0 0.00 0.00 0.00 53 1011.6
20260509002126 61 0 0.0 2.0 0.00 0.00 0.00 50 1011.7
20260509001627 62 213 0.0 1.0 0.00 0.00 0.00 49 1011.7
20260509001128 62 213 0.0 1.0 0.00 0.00 0.00 49 1011.7
20260509000856 62 214 0.0 0.0 0.00 0.00 0.00 49 1011.8
20260509000125 62 213 0.0 0.0 0.00 0.00 0.00 48 1011.7
20260508235626 62 213 0.0 1.0 0.00 0.00 0.00 48 1011.6
20260508235126 62 214 1.0 2.0 0.00 0.00 0.00 48 1011.7
20260508234625 62 214 1.0 2.0 0.00 0.00 0.00 48 1011.6
20260508234125 62 214 1.0 3.0 0.00 0.00 0.00 48 1011.4
20260508233625 62 213 1.0 4.0 0.00 0.00 0.00 46 1011.4
20260508233125 63 213 1.0 4.0 0.00 0.00 0.00 46 1011.3
20260508232627 63 0 1.0 4.0 0.00 0.00 0.00 47 1011.4
20260508232125 63 0 2.0 3.0 0.00 0.00 0.00 47 1011.6
20260508231622 63 0 2.0 5.0 0.00 0.00 0.00 46 1011.4
20260508231122 63 222 3.0 8.0 0.00 0.00 0.00 46 1011.4
20260508230622 63 0 3.0 8.0 0.00 0.00 0.00 46 1011.4
20260508230120 63 0 3.0 9.0 0.00 0.00 0.00 46 1011.6
20260508225618 64 0 3.0 9.0 0.00 0.00 0.00 46 1011.6
20260508225116 64 0 3.0 9.0 0.00 0.00 0.00 44 1011.6
20260508224615 64 0 4.0 10.0 0.00 0.00 0.00 44 1011.6
20260508224116 64 0 5.0 10.0 0.00 0.00 0.00 45 1011.6
20260508223616 64 0 5.0 12.0 0.00 0.00 0.00 45 1011.6
20260508223115 65 215 5.0 12.0 0.00 0.00 0.00 43 1011.6
20260508222616 65 0 4.0 11.0 0.00 0.00 0.00 45 1011.7
20260508222117 65 103 4.0 11.0 0.00 0.00 0.00 43 1011.6
20260508221615 65 0 5.0 12.0 0.00 0.00 0.00 46 1011.7
20260508221113 65 0 6.0 12.0 0.00 0.00 0.00 44 1011.6
20260508220613 65 225 5.0 12.0 0.00 0.00 0.00 43 1011.7
20260508220346 65 0 4.0 12.0 0.00 0.00 0.00 44 1011.8
20260508215612 65 0 4.0 9.0 0.00 0.00 0.00 46 1011.8
20260508215113 65 122 3.0 8.0 0.00 0.00 0.00 45 1011.8
20260508214612 65 0 2.0 6.0 0.00 0.00 0.00 46 1011.9
20260508214112 65 0 2.0 6.0 0.00 0.00 0.00 47 1012.0
20260508213610 65 170 2.0 6.0 0.00 0.00 0.00 50 1012.1
20260508213339 64 97 1.0 3.0 0.00 0.00 0.00 52 1012.2
20260508212839 63 92 1.0 3.0 0.00 0.00 0.00 49 1012.1
20260508212108 63 92 2.0 3.0 0.00 0.00 0.00 45 1012.3
20260508211607 63 94 2.0 4.0 0.00 0.00 0.00 45 1012.5
20260508211107 63 111 2.0 4.0 0.00 0.00 0.00 45 1012.6
20260508210605 63 0 1.0 4.0 0.00 0.00 0.00 46 1012.3
20260508210340 62 319 1.0 3.0 0.00 0.00 0.00 49 1012.3
20260508205836 61 0 1.0 3.0 0.00 0.00 0.00 49 1012.3
20260508205104 61 326 0.0 3.0 0.00 0.00 0.00 48 1012.3
20260508204835 61 325 1.0 3.0 0.00 0.00 0.00 48 1012.3
20260508204102 60 338 1.0 3.0 0.00 0.00 0.00 51 1012.4
20260508203607 60 298 0.0 3.0 0.00 0.00 0.00 50 1012.5
20260508203603 60 298 0.0 1.0 0.00 0.00 0.00 50 1012.5
20260508202603 60 298 1.0 4.0 0.00 0.00 0.00 50 1012.5
20260508202102 60 0 2.0 4.0 0.00 0.00 0.00 51 1012.6
20260508201600 60 0 1.0 3.0 0.00 0.00 0.00 50 1012.8
20260508201059 60 0 1.0 3.0 0.00 0.00 0.00 50 1012.8
20260508200600 60 331 2.0 4.0 0.00 0.00 0.00 49 1012.9
20260508200104 60 327 2.0 4.0 0.00 0.00 0.00 49 1013.0
20260508195559 60 317 1.0 4.0 0.00 0.00 0.00 50 1012.9
20260508195058 60 271 1.0 5.0 0.00 0.00 0.00 49 1013.1
20260508194556 60 234 2.0 6.0 0.00 0.00 0.00 50 1013.2
20260508194056 60 207 3.0 8.0 0.00 0.00 0.00 49 1013.2
20260508193559 60 0 2.0 9.0 0.00 0.00 0.00 47 1013.2
20260508193554 60 0 3.0 8.0 0.00 0.00 0.00 48 1013.2
20260508192555 60 182 3.0 10.0 0.00 0.00 0.00 47 1013.3
20260508192054 60 0 3.0 10.0 0.00 0.00 0.00 48 1013.5
20260508191554 60 0 4.0 11.0 0.00 0.00 0.00 48 1013.4
20260508191052 60 0 5.0 16.0 0.00 0.00 0.00 48 1013.4
20260508190828 60 0 6.0 16.0 0.00 0.00 0.00 47 1013.5
20260508190053 60 0 5.0 12.0 0.00 0.00 0.00 47 1013.6
20260508185821 60 0 6.0 13.0 0.00 0.00 0.00 47 1013.8
20260508185321 60 232 6.0 14.0 0.00 0.00 0.00 48 1014.0
20260508184548 60 0 5.0 14.0 0.00 0.00 0.00 47 1013.9
20260508184048 60 239 4.0 11.0 0.00 0.00 0.00 48 1013.7
20260508183548 60 0 4.0 13.0 0.00 0.00 0.00 47 1013.9
20260508183045 61 242 5.0 13.0 0.00 0.00 0.00 48 1013.8
20260508182817 61 0 5.0 13.0 0.00 0.00 0.00 47 1013.8
20260508182049 61 0 6.0 14.0 0.00 0.00 0.00 46 1013.7
20260508182045 61 0 5.0 14.0 0.00 0.00 0.00 47 1013.7
20260508181045 61 0 5.0 14.0 0.00 0.00 0.00 47 1013.6
20260508180546 61 0 5.0 11.0 0.00 0.00 0.00 47 1013.6
20260508180045 61 0 6.0 14.0 0.00 0.00 0.00 47 1013.6
20260508175816 61 0 5.0 14.0 0.00 0.00 0.00 47 1013.8
20260508175043 61 0 5.0 13.0 0.00 0.00 0.00 47 1013.8
20260508174542 61 0 5.0 13.0 0.00 0.00 0.00 47 1013.9
20260508174041 61 0 4.0 10.0 0.00 0.00 0.00 48 1013.8
20260508173541 61 227 4.0 10.0 0.00 0.00 0.00 46 1014.1
20260508173313 62 0 5.0 14.0 0.00 0.00 0.00 47 1014.2
20260508172538 62 336 6.0 14.0 0.00 0.00 0.00 45 1014.2
20260508172038 62 0 6.0 14.0 0.00 0.00 0.00 45 1014.2
20260508171540 62 282 6.0 14.0 0.00 0.00 0.00 46 1014.3
20260508171039 62 267 6.0 13.0 0.00 0.00 0.00 46 1014.4
20260508170538 62 0 5.0 12.0 0.00 0.00 0.00 46 1014.4
20260508170038 62 0 5.0 13.0 0.00 0.00 0.00 48 1014.3
20260508165537 62 0 6.0 13.0 0.00 0.00 0.00 46 1014.4
20260508165037 62 281 7.0 14.0 0.00 0.00 0.00 45 1014.5
20260508164537 62 38 6.0 14.0 0.00 0.00 0.00 45 1014.6
20260508164036 62 0 5.0 15.0 0.00 0.00 0.00 44 1014.6
20260508163535 62 0 5.0 15.0 0.00 0.00 0.00 45 1014.6
20260508163305 62 0 5.0 14.0 0.00 0.00 0.00 45 1014.8
20260508162534 62 0 5.0 14.0 0.00 0.00 0.00 44 1014.6
20260508162034 62 0 5.0 13.0 0.00 0.00 0.00 45 1014.6
20260508161805 62 0 5.0 17.0 0.00 0.00 0.00 44 1014.5
20260508161032 62 35 7.0 17.0 0.00 0.00 0.00 43 1014.8
20260508160532 62 0 7.0 19.0 0.00 0.00 0.00 42 1014.8
20260508160032 62 0 5.0 19.0 0.00 0.00 0.00 43 1015.0
20260508155531 63 0 6.0 15.0 0.00 0.00 0.00 45 1014.9
20260508155031 62 0 7.0 15.0 0.00 0.00 0.00 43 1015.0
20260508154531 62 0 6.0 15.0 0.00 0.00 0.00 44 1014.9
20260508154030 62 248 6.0 19.0 0.00 0.00 0.00 44 1015.0
20260508153530 62 0 7.0 19.0 0.00 0.00 0.00 45 1015.0
20260508153030 62 0 6.0 16.0 0.00 0.00 0.00 44 1015.0